Time,TemperatureF,DewpointF,PressureIn,WindDirection,WindDirectionDegrees,WindSpeedMPH,WindSpeedGustMPH,Humidity,HourlyPrecipIn,Conditions,Clouds,dailyrainin,SoftwareType,DateUTC
2014-02-14 01:41:00,49.0,48.0,29.75,WSW,257,11.0,17.0,97,0.17,,,-99.99,,2014-02-14 09:41:00,
2014-02-14 01:54:00,50.0,49.0,29.75,South,178,2.0,14.0,97,0.15,,,-99.99,,2014-02-14 09:54:00,
2014-02-14 02:23:00,50.0,49.0,29.76,South,186,5.0,13.0,97,0.10,,,-99.99,,2014-02-14 10:23:00,
2014-02-14 02:42:00,50.0,49.0,29.76,SE,138,5.0,12.0,97,0.09,,,-99.99,,2014-02-14 10:42:00,
2014-02-14 02:53:00,51.0,50.0,29.76,SSE,160,6.0,13.0,98,0.05,,,-99.99,,2014-02-14 10:53:00,
2014-02-14 03:11:00,51.0,50.0,29.75,SSE,161,5.0,14.0,98,0.05,,,-99.99,,2014-02-14 11:11:00,
2014-02-14 03:22:00,51.0,50.0,29.73,SSE,159,6.0,13.0,98,0.04,,,-99.99,,2014-02-14 11:22:00,
2014-02-14 03:42:00,51.0,50.0,29.73,SSE,148,7.0,15.0,98,0.04,,,-99.99,,2014-02-14 11:42:00,
2014-02-14 03:53:00,52.0,51.0,29.73,SSE,163,7.0,14.0,98,0.04,,,-99.99,,2014-02-14 11:53:00,
2014-02-14 04:22:00,52.0,51.0,29.74,SSE,149,5.0,14.0,98,0.04,,,-99.99,,2014-02-14 12:22:00,
2014-02-14 04:42:00,52.0,51.0,29.74,South,184,3.0,10.0,98,0.04,,,-99.99,,2014-02-14 12:42:00,
2014-02-14 04:52:00,52.0,51.0,29.74,South,190,3.0,16.0,98,0.05,,,-99.99,,2014-02-14 12:52:00,
2014-02-14 05:21:00,52.0,51.0,29.74,South,178,6.0,13.0,98,0.04,,,-99.99,,2014-02-14 13:21:00,
2014-02-14 05:42:00,52.0,51.0,29.75,South,188,5.0,11.0,98,0.03,,,-99.99,,2014-02-14 13:42:00,
2014-02-14 05:52:00,53.0,52.0,29.76,South,187,1.0,6.0,98,0.02,,,-99.99,,2014-02-14 13:52:00,
2014-02-14 06:21:00,53.0,52.0,29.78,South,177,1.0,5.0,98,0.05,,,-99.99,,2014-02-14 14:21:00,
2014-02-14 06:42:00,52.0,51.0,29.78,South,175,2.0,6.0,97,0.05,,,-99.99,,2014-02-14 14:42:00,
2014-02-14 06:52:00,52.0,51.0,29.79,SE,143,0.0,4.0,97,0.04,,,-99.99,,2014-02-14 14:52:00,
2014-02-14 07:11:00,52.0,51.0,29.79,SE,143,1.0,2.0,97,0.01,,,-99.99,,2014-02-14 15:11:00,
2014-02-14 07:21:00,51.0,50.0,29.80,South,190,1.0,5.0,97,0.00,,,-99.99,,2014-02-14 15:21:00,
2014-02-14 07:43:00,51.0,50.0,29.81,South,190,0.0,2.0,97,0.00,,,-99.99,,2014-02-14 15:43:00,
2014-02-14 07:54:00,51.0,50.0,29.81,SSE,150,2.0,5.0,97,0.00,,,-99.99,,2014-02-14 15:54:00,
2014-02-14 08:23:00,51.0,50.0,29.82,SE,134,2.0,9.0,97,0.00,,,-99.99,,2014-02-14 16:23:00,
2014-02-14 08:43:00,51.0,50.0,29.83,South,175,8.0,11.0,97,0.00,,,-99.99,,2014-02-14 16:43:00,
2014-02-14 08:53:00,51.0,50.0,29.84,South,186,4.0,12.0,95,0.00,,,-99.99,,2014-02-14 16:53:00,
2014-02-14 09:22:00,51.0,48.0,29.85,South,169,6.0,9.0,91,0.00,,,-99.99,,2014-02-14 17:22:00,
2014-02-14 09:52:00,51.0,48.0,29.88,SSE,165,1.0,7.0,89,0.00,,,-99.99,,2014-02-14 17:52:00,
2014-02-14 10:22:00,51.0,48.0,29.91,South,190,1.0,3.0,90,0.00,,,-99.99,,2014-02-14 18:22:00,
2014-02-14 10:52:00,52.0,49.0,29.91,South,187,0.0,3.0,90,0.00,,,-99.99,,2014-02-14 18:52:00,
2014-02-14 11:11:00,52.0,49.0,29.92,South,187,0.0,1.0,91,0.00,,,0.78,,2014-02-14 19:11:00,
2014-02-14 11:21:00,53.0,49.0,29.92,SSW,193,2.0,9.0,86,0.00,,,0.78,,2014-02-14 19:21:00,
2014-02-14 11:53:00,53.0,48.0,29.93,South,172,5.0,10.0,83,0.00,,,0.78,,2014-02-14 19:53:00,
2014-02-14 12:11:00,53.0,48.0,29.94,SSW,203,5.0,12.0,83,0.00,,,0.78,,2014-02-14 20:11:00,
2014-02-14 12:22:00,53.0,48.0,29.93,South,184,1.0,6.0,82,0.00,,,0.78,,2014-02-14 20:22:00,
2014-02-14 12:42:00,53.0,48.0,29.92,SSW,199,1.0,5.0,82,0.00,,,0.78,,2014-02-14 20:42:00,
2014-02-14 12:53:00,53.0,48.0,29.92,SW,227,0.0,5.0,83,0.00,,,0.78,,2014-02-14 20:53:00,
2014-02-14 13:21:00,54.0,49.0,29.93,SW,227,0.0,3.0,84,0.01,,,0.79,,2014-02-14 21:21:00,
2014-02-14 13:43:00,54.0,50.0,29.93,SW,227,0.0,0.0,86,0.01,,,0.79,,2014-02-14 21:43:00,
2014-02-14 13:53:00,54.0,50.0,29.94,West,267,0.0,4.0,86,0.01,,,0.79,,2014-02-14 21:53:00,
2014-02-14 14:23:00,53.0,50.0,29.94,WNW,298,0.0,4.0,89,0.01,,,0.80,,2014-02-14 22:23:00,
2014-02-14 14:43:00,53.0,49.0,29.94,WNW,299,0.0,1.0,87,0.01,,,0.80,,2014-02-14 22:43:00,
2014-02-14 14:53:00,53.0,49.0,29.95,WNW,298,0.0,1.0,86,0.01,,,0.80,,2014-02-14 22:53:00,
2014-02-14 15:12:00,53.0,50.0,29.96,WNW,298,0.0,1.0,88,0.00,,,0.80,,2014-02-14 23:12:00,
2014-02-14 15:22:00,53.0,49.0,29.95,South,177,4.0,5.0,86,0.00,,,0.80,,2014-02-14 23:22:00,
2014-02-14 15:42:00,53.0,49.0,29.95,SSW,194,2.0,5.0,85,0.00,,,0.80,,2014-02-14 23:42:00,
2014-02-14 15:53:00,52.0,48.0,29.96,South,184,0.0,3.0,86,0.00,,,0.80,,2014-02-14 23:53:00,
2014-02-14 16:12:00,52.0,48.0,29.95,WSW,238,0.0,4.0,87,0.00,,,0.80,,2014-02-15 00:12:00,
2014-02-14 16:22:00,51.0,48.0,29.96,SSW,194,3.0,10.0,89,0.02,,,0.82,,2014-02-15 00:22:00,
2014-02-14 16:42:00,51.0,48.0,29.96,South,176,0.0,3.0,89,0.02,,,0.82,,2014-02-15 00:42:00,
2014-02-14 16:52:00,50.0,47.0,29.96,SW,216,3.0,7.0,89,0.03,,,0.83,,2014-02-15 00:52:00,
2014-02-14 17:22:00,49.0,46.0,29.97,South,180,0.0,5.0,90,0.01,,,0.83,,2014-02-15 01:22:00,
2014-02-14 17:52:00,49.0,47.0,29.96,SSE,156,2.0,6.0,92,0.01,,,0.84,,2014-02-15 01:52:00,
2014-02-14 18:21:00,49.0,47.0,29.95,South,183,1.0,6.0,94,0.01,,,0.84,,2014-02-15 02:21:00,
2014-02-14 18:42:00,49.0,47.0,29.97,South,186,0.0,7.0,94,0.01,,,0.84,,2014-02-15 02:42:00,
2014-02-14 18:52:00,49.0,47.0,29.96,NW,306,1.0,2.0,94,0.01,,,0.85,,2014-02-15 02:52:00,
2014-02-14 19:11:00,49.0,47.0,29.95,South,184,0.0,2.0,94,0.01,,,0.85,,2014-02-15 03:11:00,
2014-02-14 19:22:00,49.0,48.0,29.97,SSE,165,0.0,3.0,95,0.01,,,0.85,,2014-02-15 03:22:00,
2014-02-14 19:53:00,49.0,48.0,29.96,SSE,162,2.0,5.0,95,0.00,,,0.85,,2014-02-15 03:53:00,
2014-02-14 20:13:00,48.0,47.0,29.94,SSE,163,1.0,7.0,95,0.00,,,0.85,,2014-02-15 04:13:00,
2014-02-14 20:23:00,48.0,47.0,29.94,SSE,163,2.0,8.0,95,0.00,,,0.85,,2014-02-15 04:23:00,
2014-02-14 20:42:00,48.0,46.0,29.93,SSE,159,4.0,7.0,94,0.00,,,0.85,,2014-02-15 04:42:00,
2014-02-14 20:52:00,48.0,46.0,29.95,SSW,198,3.0,9.0,94,0.00,,,0.85,,2014-02-15 04:52:00,
2014-02-14 21:22:00,48.0,46.0,29.94,SSW,193,2.0,10.0,94,0.00,,,0.83,,2014-02-15 05:22:00,
2014-02-14 21:42:00,48.0,46.0,29.94,South,182,1.0,7.0,94,0.00,,,0.83,,2014-02-15 05:42:00,
2014-02-14 21:53:00,47.0,46.0,29.93,South,182,0.0,2.0,95,0.00,,,0.83,,2014-02-15 05:53:00,
2014-02-14 22:22:00,47.0,46.0,29.92,South,182,0.0,0.0,95,0.00,,,0.80,,2014-02-15 06:22:00,
2014-02-14 22:52:00,47.0,46.0,29.93,South,182,0.0,0.0,95,0.00,,,0.80,,2014-02-15 06:52:00,
2014-02-14 23:22:00,47.0,46.0,29.91,South,182,0.0,0.0,95,0.00,,,0.75,,2014-02-15 07:22:00,
2014-02-14 23:52:00,47.0,46.0,29.91,South,182,0.0,0.0,96,0.01,,,0.76,,2014-02-15 07:52:00,